Regional Weather Roundup
Issued by NWS

Home | Current Version | Previous Version | Graphics & Text | Print | Product List | Glossary On
Versions: 1 2 3 4 5 6 7 8 9 10 11 12 13 14 15 16 17 18 19 20 21 22 23 24 25 26 27 28 29 30 31 32 33 34 35 36 37 38 39 40 41 42 43 44 45 46 47 48 49 50
000
ASUS44 KMEG 222010
RWRTN
TENNESSEE HOURLY STATE WEATHER ROUNDUP
NATIONAL WEATHER SERVICE MEMPHIS TN
200 PM CST MON DEC 22 2014

TNZ002-004-019-021-049-052-054-088>092-222100-
WEST TENNESSEE

CITY           SKY/WX    TMP DP  RH WIND       PRES   REMARKS
MEMPHIS INTL   CLOUDY    59  51  75 S10G24    29.64F
NWS MEMPHIS      N/A    N/A N/A N/A MISG        N/A
JACKSON        CLOUDY    55  50  83 SE8       29.69F
DYERSBURG      CLOUDY    55  43  62 S12G22    29.65F
UNION CITY     CLOUDY    54  50  87 S14       29.64F
PARIS          CLOUDY    54  46  76 S14       29.69F
HUNTINGDON     CLOUDY    52  48  86 S9        29.70F
LEXINGTON      CLOUDY    52  48  87 SE8       29.72F
SAVANNAH       CLOUDY    52  52 100 SE5       29.74F
$$

TNZ008-025-027-028-033-062-065-066-222100-
NORTH MIDDLE TENNESSEE

CITY           SKY/WX    TMP DP  RH WIND       PRES   REMARKS
NASHVILLE      CLOUDY    52  49  89 S7        29.78F
CLARKSVILLE    CLOUDY    53  47  79 SE14      29.73F
SMYRNA         LGT RAIN  53  49  86 S10       29.79F FOG
COOKEVILLE     CLOUDY    54  46  76 S8        29.81F
CROSSVILLE     LGT RAIN  50  44  80 S9        29.84F
$$

TNZ061-075-076-078-094-096-097-222100-
SOUTH MIDDLE TENNESSEE

CITY           SKY/WX    TMP DP  RH WIND       PRES   REMARKS
FAYETTEVILLE   CLOUDY    48  46  93 MISG      29.79F
TULLAHOMA      CLOUDY    48  46  93 SE7       29.81F
WINCHESTER     CLOUDY    48  46  93 SE8       29.81F
MCMINNVILLE    CLOUDY    52  48  87 CALM      29.81F
COLUMBIA       CLOUDY   N/A N/A N/A SE5       29.76F
SHELBYVILLE    CLOUDY    52  50  93 SE6       29.80F
$$

TNZ017-018-042-046-047-222100-
NORTHEAST TENNESSEE

CITY           SKY/WX    TMP DP  RH WIND       PRES   REMARKS
TRI CITIES     MOSUNNY   59  42  53 E9        29.88F
ELIZABETHTON   CLOUDY    55  41  58 E9        29.90S
$$

TNZ012-013-036-069-073-074-222100-
CENTRAL EAST TENNESSEE

CITY           SKY/WX    TMP DP  RH WIND       PRES   REMARKS
KNOXVILLE      PTSUNNY   59  42  53 CALM      29.84F
OAK RIDGE      CLOUDY    57  41  55 CALM      29.86F
GATLINBURG     CLEAR     57  43  58 CALM      29.83F
MORRISTOWN     CLEAR     61  45  55 E6        29.85F
$$

TNZ083-085-099-222100-
SOUTHEAST TENNESSEE

CITY           SKY/WX    TMP DP  RH WIND       PRES   REMARKS
CHATTANOOGA    LGT RAIN  50  45  83 SW6       29.88F
$$

SKY/WX REPORTED AS FAIR MEANS FEW OR NO CLOUDS BELOW
12 THOUSAND FEET.



USA.gov is the U.S. government's official web portal to all federal, state and local government web resources and services.